Regional Weather Roundup
Issued by NWS

Home | Current Version | Previous Version | Text Only | Print | Product List | Glossary On
Versions: 1 2 3 4 5 6 7 8 9 10 11 12 13 14 15 16 17 18 19 20 21 22 23 24 25 26 27 28 29 30 31 32 33 34 35 36 37 38 39 40 41 42 43 44 45 46 47 48 49 50
714
ASUS43 KDTX 241001
RWRMI
MICHIGAN HOURLY REGIONAL WEATHER ROUNDUP
NATIONAL WEATHER SERVICE DETROIT/PONTIAC MI
500 AM EST TUE JAN 24 2017

NOTE: "FAIR" INDICATES FEW OR NO CLOUDS BELOW 12,000 FEET WITH NO
SIGNIFICANT WEATHER AND/OR OBSTRUCTION TO VISIBILITY.

MIZ047>049-052>055-059>063-066>070-074>076-081>083-241100-
SOUTHEAST LOWER MICHIGAN

CITY           SKY/WX    TMP DP  RH WIND       PRES   REMARKS
ADRIAN         CLOUDY    39  38  96 NW6       29.74R WCI  35
ALMA           LGT SNOW  36  36  99 W3        29.75S
ANN ARBOR      CLOUDY    39  39 100 W3        29.71S FOG
BAD AXE        CLOUDY    34  34 100 CALM      29.73S FOG
CARO           LGT RAIN  36  35  96 CALM      29.72S
DETROIT CITY   CLOUDY    38  36  92 NE3       29.72S
DETROIT        LGT RAIN  39  39 100 CALM      29.72S VSB 1
FLINT          FOG       36  36 100 NW3       29.72F VSB 1
GROSSE ILE     CLOUDY    38  37  97 CALM      29.71R FOG
HILLSDALE      RAIN      36  36 100 NW5       29.73R WCI  32
HOWELL         RAIN      36  35  98 NW3       29.71S

CITY           SKY/WX    TMP DP  RH WIND       PRES   REMARKS
JACKSON        LGT RAIN  37  36  96 NW5       29.74R FOG     WCI  33
LAMBERTVILLE   RAIN      39  37  94 CALM      29.73R
LANSING        LGT RAIN  37  35  92 NW5       29.75R FOG     WCI  33
LAPEER         LGT RAIN  36  36 100 CALM      29.71F VSB 1/2
MASON          DRIZZLE   37  37 100 NW5       29.74R WCI  33
MONROE         CLOUDY    38  38 100 CALM      29.71S FOG
MT. CLEMENS    CLOUDY    37  37 100 CALM      29.70R
PONTIAC        FOG       37  35  92 NW3       29.69F VSB 1/2
PORT HOPE        N/A     35  34  96 CALM      29.72F
PORT HURON     CLOUDY    36  34  93 CALM      29.72S FOG
TRI CITIES     LGT RAIN  35  35 100 NW5       29.74S VSB 1/4 WCI  31
MIDLAND        DRIZZLE   37  36  97 CALM      29.74R
TROY           CLOUDY    38  37  96 CALM      29.73R FOG
SAGINAW HB     LGT RAIN  36  34  93 CALM      29.73S VSB 3/4
$$
MIZ043>046-050>051-056>058-064>065-071>073-077>080-241100-
SOUTHWEST LOWER MICHIGAN

CITY           SKY/WX    TMP DP  RH WIND       PRES   REMARKS
BATTLE CREEK   CLOUDY    39  39 100 NW10      29.76R FOG     WCI  32
BENTON HARBOR  CLOUDY    39  36  89 NW7       29.81R WCI  34
BIG RAPIDS     FOG       36  35  97 NW6       29.75S VSB 3/4 WCI  31
COLDWATER      CLOUDY    40  40 100 NW6       29.75S FOG
FREMONT        CLOUDY    37  37  99 NW12      29.78R WCI  29
HOLLAND        CLOUDY    38  36  92 NW6       29.79S WCI  33
GRAND RAPIDS   CLOUDY    39  36  89 W9        29.77R WCI  33
IONIA          LGT RAIN  37  37 100 W6        29.76R WCI  32
KALAMAZOO      CLOUDY    39  36  89 NW9       29.77R FOG     WCI  33
LUDINGTON      CLOUDY    36  36 100 NW6       29.79R WCI  31
MARSHALL       LGT RAIN  39  38  98 NW3       29.75R
MOUNT PLEASANT LGT RAIN  36  36  99 CALM      29.74S
MUSKEGON       CLOUDY    38  36  92 NW12      29.80R WCI  30
SOUTH HAVEN    CLOUDY    38  37  95 NW7       29.80S FOG     WCI  33
$$
MIZ016>042-241100-
NORTHERN LOWER MICHIGAN

CITY           SKY/WX    TMP DP  RH WIND       PRES   REMARKS
ALPENA         LGT RAIN  36  34  92 E6        29.76S WCI  31
BEAVER ISLAND  FOG       33  33 100 N3        29.77S VSB 1/2
BELLAIRE       FOG       33  33 100 CALM      29.76S VSB<1/4
CADILLAC       FOG       35  34  96 NW5       29.73S VSB 3/4 WCI  31
CHARLEVOIX     CLOUDY    34  34 100 CALM      29.78S
FRANKFORT      CLOUDY    37  37  99 CALM      29.77S
GAYLORD        CLOUDY    35  31  85 CALM      29.72F FOG
GRAYLING       CLOUDY    35  34  96 CALM      29.74S FOG
HARBOR SPRINGS CLOUDY    33  33 100 CALM      29.75S
HOUGHTON LAKE  CLOUDY    34  34 100 CALM      29.73S
MANISTEE       CLOUDY    36  35  96 W7        29.78R FOG     WCI  30
OSCODA         MIX PCPN  36  35  98 N3        29.73F
PELLSTON       FOG       34  33  96 CALM      29.76S VSB 1/2
ROGERS CITY    LGT SNOW  35  34  96 CALM      29.77R
TRAVERSE CITY  CLOUDY    37  36  96 NW6       29.76R WCI  32
$$
MIZ007>008-015-241100-
EASTERN UPPER MICHIGAN

CITY           SKY/WX    TMP DP  RH WIND       PRES   REMARKS
KINROSS        FLURRIES  33  32  96 E7        29.77S WCI  27
MACKINAC ISLAN CLOUDY    33  33 100 E6        29.76S FOG     WCI  28
NEWBERRY       FOG       32  31  97 NE3       29.76S VSB 1/2
S. S. MARIE    LGT SNOW  34  33  96 E3        29.77S FOG
MUNISING         N/A     34  34 100 NW6       29.78R WCI  29
$$
MIZ004>006-011>014-085-241100-
CENTRAL UPPER MICHIGAN

CITY           SKY/WX    TMP DP  RH WIND       PRES   REMARKS
MANISTIQUE     CLOUDY    32  32  99 CALM      29.78R
ESCANABA       CLOUDY    34  34 100 W3        29.80R
SAWYER-GWINN   CLOUDY    33  32  99 CALM      29.78S
$$
MIZ001>003-009>011-084-241100-
WESTERN UPPER MICHIGAN

CITY           SKY/WX    TMP DP  RH WIND       PRES   REMARKS
IRON MOUNTAIN  CLOUDY    33  32  96 NW3       29.78R
HOUGHTON       FOG       34  32  92 NW9       29.78S VSB 1/4 WCI  27
COPPER HARBOR    N/A     35  35 100 CALM      29.79S
IRONWOOD       CLOUDY    33  32  96 W6        29.82S WCI  28
$$

ABBREVIATIONS USED IN REMARKS
   TC - TEMPERATURE IN CELSIUS
  WCI - WIND CHILL INDEX
   HX - HEAT INDEX
  VSB - VISIBILITY





USA.gov is the U.S. government's official web portal to all federal, state and local government web resources and services.